CDT,Max TemperatureF,Mean TemperatureF,Min TemperatureF,Max Dew PointF,MeanDew PointF,Min DewpointF,Max Humidity, Mean Humidity, Min Humidity, Max Sea Level PressureIn, Mean Sea Level PressureIn, Min Sea Level PressureIn, Max VisibilityMiles, Mean VisibilityMiles, Min VisibilityMiles, Max Wind SpeedMPH, Mean Wind SpeedMPH, Max Gust SpeedMPH,PrecipitationIn, CloudCover, Events, WindDirDegrees
2013-10-1,80,66,53,54,46,37,96,56,23,29.99,29.92,29.77,10,10,7,14,8,21,0.00,0,,54
2013-10-2,85,70,55,64,60,48,100,72,41,29.97,29.88,29.79,10,9,1,17,8,32,0.85,3,Rain-Thunderstorm,151
2013-10-3,75,68,61,65,62,61,100,89,67,29.86,29.77,29.72,10,10,2,17,10,25,1.21,5,Rain-Thunderstorm,112
2013-10-4,83,62,42,70,56,32,95,75,45,29.95,29.74,29.61,10,10,7,22,13,33,0.01,4,,144
2013-10-5,50,44,40,38,33,31,90,66,51,29.96,29.92,29.88,10,10,7,25,14,34,0.01,5,Rain,272
2013-10-6,64,52,41,42,35,22,92,63,20,30.08,29.96,29.88,10,10,10,25,15,34,0.01,4,Rain,315
2013-10-7,76,57,38,43,39,34,95,57,28,30.10,30.04,29.97,10,10,10,13,7,18,0.00,0,,232
2013-10-8,79,65,51,46,41,38,65,45,25,29.96,29.90,29.82,10,10,10,23,14,36,0.00,0,,179
2013-10-9,80,66,53,53,49,45,83,57,29,29.95,29.90,29.86,10,10,10,22,14,32,0.00,0,,161
2013-10-10,81,68,56,58,55,54,92,66,41,29.94,29.84,29.71,10,10,10,22,13,30,0.00,0,,162
2013-10-11,73,60,46,60,50,42,93,67,36,29.95,29.71,29.59,10,10,7,23,16,33,0.03,1,Rain,222
2013-10-12,64,52,39,46,37,30,96,64,28,30.28,30.14,29.95,10,10,3,15,6,21,0.00,0,,301
2013-10-13,69,54,40,38,35,32,86,51,25,30.39,30.30,30.21,10,10,3,17,8,25,0.00,3,Rain-Thunderstorm,127
2013-10-14,61,54,48,61,50,36,100,87,42,30.20,29.93,29.68,10,8,2,25,15,31,1.47,7,Rain-Thunderstorm,160
2013-10-15,49,45,41,42,37,34,80,71,61,30.14,30.03,29.87,10,10,10,28,19,37,0.00,7,,309
2013-10-16,56,46,35,38,34,20,94,66,25,30.13,30.05,29.96,10,10,10,14,9,18,0.00,3,,297
2013-10-17,54,44,33,40,35,31,93,73,56,30.11,29.99,29.90,10,10,10,24,10,30,0.00,3,,301
2013-10-18,51,40,29,34,29,23,96,70,34,30.15,30.09,30.03,10,10,10,10,6,,0.00,1,,293
2013-10-19,64,48,32,37,33,31,96,66,31,30.02,29.90,29.80,10,10,10,17,8,22,0.00,1,,253
2013-10-20,65,52,37,39,36,33,87,61,32,30.06,29.85,29.74,10,10,10,22,11,30,0.00,2,,311
2013-10-21,58,43,28,40,34,28,100,74,38,30.10,30.03,29.93,10,10,10,16,6,25,0.00,3,,268
2013-10-22,57,44,32,44,39,32,96,73,48,30.13,30.01,29.92,10,10,10,22,11,31,0.00,3,Rain,327
2013-10-23,64,49,34,42,37,33,100,80,43,30.22,30.10,29.98,10,10,7,23,6,32,0.00,3,,283
2013-10-24,48,40,32,38,28,20,93,66,36,30.42,30.35,30.23,10,10,10,15,6,22,0.00,6,,326
2013-10-25,59,48,37,33,30,26,71,54,36,30.38,30.23,30.07,10,10,10,23,11,30,0.00,3,,208
2013-10-26,54,44,32,38,31,25,88,62,32,30.27,30.17,30.05,10,10,7,18,9,25,0.00,0,,332
2013-10-27,75,54,33,39,33,27,76,54,23,30.13,29.93,29.80,10,10,5,17,10,24,0.00,0,,221
2013-10-28,51,45,39,39,35,34,81,67,53,30.14,30.07,29.95,10,10,10,21,13,26,0.00,3,Thunderstorm,55
2013-10-29,48,44,41,48,45,39,100,98,79,30.11,30.00,29.94,10,3,0,15,10,21,0.01,8,Fog-Rain,41
2013-10-30,49,42,34,48,42,34,100,99,86,30.01,29.88,29.78,10,7,0,12,7,33,0.02,7,Fog-Rain,336
2013-10-31,58,44,30,43,36,31,100,78,39,29.77,29.64,29.56,10,7,0,24,8,32,0.00,0,Fog,280